Overview Statistics Trail Chart Weather Telemetry Raw packets
 

This is the latest recevied weather packets stored in our database for station/object KB0BS-13. If no packets are shown the sender has not sent any weather packets the latest 10 day(s).

<< 68 69 70 71 72 73 74 >>
Time Temp. Humidity Pressure Rain* Wind** Luminosity Snow
1777218571 12.78° C 72% 1022.8 hPa 0 mm - 514 W/m² -
1777218271 12.78° C 72% 1022.8 hPa 0 mm - 487 W/m² -
1777217968 12.78° C 70% 1022.8 hPa 0 mm - 507 W/m² -
1777217663 12.22° C 69% 1022.8 hPa 0 mm - 503 W/m² -
1777217360 12.22° C 72% 1022.9 hPa 0 mm - 253 W/m² -
1777217056 12.22° C 72% 1022.8 hPa 0 mm - 292 W/m² -
1777216753 12.22° C 76% 1022.7 hPa 0 mm - 606 W/m² -
1777216449 11.67° C 82% 1022.9 hPa 0 mm - 514 W/m² -
1777216148 11.67° C 78% 1022.8 hPa 0 mm - 220 W/m² -
1777215843 11.67° C 77% 1023.2 hPa 0 mm - 350 W/m² -
1777215539 12.22° C 76% 1023.1 hPa 0 mm - 482 W/m² -
1777215235 11.67° C 74% 1023 hPa 0 mm - 576 W/m² -
1777214931 11.11° C 81% 1023.1 hPa 0 mm - 568 W/m² -
1777214630 11.11° C 81% 1023 hPa 0 mm - 487 W/m² -
1777214326 11.11° C 84% 1023.2 hPa 0 mm - 434 W/m² -
1777214024 10° C 88% 1023.1 hPa 0 mm - 503 W/m² -
1777213719 9.44° C 99% 1023.4 hPa 0 mm - 521 W/m² -
1777213415 8.33° C 99% 1023.5 hPa 0 mm - 497 W/m² -
1777213113 7.78° C 99% 1023.4 hPa 0 mm - 516 W/m² -
1777212810 7.78° C 99% 1023.4 hPa 0 mm - 417 W/m² -
1777212507 7.22° C 99% 1023.5 hPa 0 mm - 500 W/m² -
1777212200 6.67° C 99% 1023.7 hPa 0 mm - 464 W/m² -
1777211895 6.11° C 99% 1023.6 hPa 0 mm - 481 W/m² -
1777211593 6.11° C 99% 1023.6 hPa 0 mm - 470 W/m² -
1777211290 5.56° C 99% 1023.6 hPa 0 mm - 449 W/m² -

* Rain latest hour (hover to see other rain measurements)
** Current wind speed in m/s (hover to see current wind gust speed)